Location: *
(51.1248°S, 108.4023°W)
Time: 04:02:37
(UTC+00:00)

Cosmos 2315 Rocket - Pass Details

Date: 15 June 2021
Orbit: 966 x 1002 km, 82.9° (Epoch: 31 July)

Event Time Altitude Azimuth Distance (km) Brightness Sun altitude
Rises 12:18:07 0° 348° (NNW) 3,673 7.0 -26.6°
Reaches altitude 10° 12:20:37 10° 346° (NNW) 2,737 6.3 -26.2°
Maximum altitude 12:26:55 79° 259° (W) 1,022 3.9 -25.2°
Drops below altitude 10° 12:33:22 10° 172° (S) 2,795 6.4 -24.2°
Sets 12:35:56 0° 170° (S) 3,755 7.1 -23.8°
